KOLMKGRF

Guest
Details From KOLM - OLYMPIA
To KGRF - GRAY AAF
Flight Number -
Tags generated
Created
Modified
Stats Distance 15 nm / 27 km
Max Altitude 100 ft / 30 m
Waypoints 3
Social Downloads 3
Likes 0
Share VATSIM

Download

Looking for another format? Having issues loading an existing format? Contact us
Advertisement - Login to hide

Notes

Basic altitude profile: - Ascent Rate: 2000ft/min - Ascent Speed: 130kts - Cruise Altitude: 35000ft - Cruise Speed: 160kts - Descent Rate: 1000ft/min - Descent Speed: 120kts

Route

KOLM OLM KGRF

ID Type Via Altitude Latitude Longitude Leg Dist Tot Dist Heading (true) Name
O KOLM APT - 0 ft / 0 m 46.96931˚ -122.90248˚ - 0 nm - OLYMPIA
OLM VOR - 100 ft / 30 m 46.97164˚ -122.90183˚ 0 nm 0 nm 11° / 11° OLYMPIA VORTAC
O KGRF APT - 0 ft / 0 m 47.07922˚ -122.58078˚ 14 nm 14 nm 64° / 64° GRAY AAF

Altitude Profile

Advertisement - Login to hide

KOLM

Details ICAO KOLM (OLM)
Name OLYMPIA
Region United States
Timezone America/Los_Angeles (UTC-7.0)
Stats Elevation 209 ft / 64 m (AMSL)
Location 46.969312° -122.902479°
Runways 2
Magnetic Variation 15.614° E

METAR

KOLM 211254Z AUTO 00000KT 10SM OVC017 09/08 A3007 RMK AO2 SLP182 T00940083

Decode

TAF

TAF KOLM 211132Z 2112/2212 VRB03KT P6SM BKN020 BKN050 FM211800 01004KT P6SM BKN025 BKN050 FM212000 35006KT P6SM SCT030 SCT250 FM220500 VRB03KT P6SM SKC

Decode

Departure Runways

ID Width Length Bearing (true) Bearing (mag) Surface Threshold Offset Overrun Length
08 151 ft / 46 m 4,147 ft / 1,264 m 103.71° 88.10° Asphalt 0 ft / 0 m 0 ft / 0 m
17 151 ft / 46 m 5,503 ft / 1,677 m 191.27° 175.66° Asphalt 0 ft / 0 m 600 ft / 183 m
26 151 ft / 46 m 4,147 ft / 1,264 m 283.72° 268.11° Asphalt 0 ft / 0 m 0 ft / 0 m
35 151 ft / 46 m 5,503 ft / 1,677 m 11.27° 355.66° Asphalt 0 ft / 0 m 0 ft / 0 m

KGRF

Details ICAO KGRF (GRF)
Name GRAY AAF
Region United States
Timezone America/Los_Angeles (UTC-7.0)
Stats Elevation 302 ft / 92 m (AMSL)
Location 47.079218° -122.580783°
Runways 1
Magnetic Variation 15.584° E

METAR

KGRF 211258Z AUTO 00000KT 10SM OVC017 11/11 A3006 RMK AO2 SLP183 T01100108 RVRNO $

Decode

TAF

TAF KGRF 211302Z 2113/2219 24009KT 9999 BKN019 QNH3003INS TEMPO 2113/2116 BKN014 BECMG 2115/2116 24009KT 9999 BKN020 QNH3007INS BECMG 2119/2120 VRB06KT 9999 SCT030 QNH3005INS BECMG 2206/2207 VRB06KT 8000 BR SCT020 QNH3002INS BECMG 2216/2217 22009KT 9999 NSW SCT030 QNH3006INS TX19/2123Z TN10/2213Z

Decode

Destination Runways

ID Width Length Bearing (true) Bearing (mag) Surface Threshold Offset Overrun Length
15 150 ft / 46 m 6,126 ft / 1,867 m 167.11° 151.53° Asphalt 0 ft / 0 m 0 ft / 0 m
33 150 ft / 46 m 6,126 ft / 1,867 m 347.11° 331.53° Asphalt 0 ft / 0 m 0 ft / 0 m

Approach Navaids

Runway Type Ident Frequency Range Bearing (true) Bearing (mag) Slope Elevation
15 Localiser IGRF 108.30 MHz 18 nm / 33 km 167.09° 151.50° - 302 ft / 92 m (AMSL)
15 Glidescope IGRF 108.30 MHz 10 nm / 19 km 167.11° 151.52° 3.00° 296 ft / 90 m (AMSL)